TimeCDT,TemperatureF,Dew PointF,Humidity,Sea Level PressureIn,VisibilityMPH,Wind Direction,Wind SpeedMPH,Gust SpeedMPH,PrecipitationIn,Events,Conditions,WindDirDegrees,DateUTC
12:53 AM,57.9,55.9,93,30.17,10.0,SSE,4.6,-,N/A,,Clear,160,2012-10-12 05:53:00
1:53 AM,59.0,57.0,93,30.17,10.0,Calm,Calm,-,N/A,,Clear,0,2012-10-12 06:53:00
2:53 AM,57.9,57.0,97,30.16,9.0,South,4.6,-,N/A,,Clear,180,2012-10-12 07:53:00
3:53 AM,57.9,57.9,100,30.16,7.0,South,5.8,-,N/A,,Clear,190,2012-10-12 08:53:00
4:53 AM,60.1,59.0,96,30.15,7.0,South,5.8,-,N/A,,Overcast,170,2012-10-12 09:53:00
5:53 AM,64.0,62.1,93,30.16,9.0,South,8.1,-,N/A,,Mostly Cloudy,190,2012-10-12 10:53:00
6:53 AM,63.0,62.1,97,30.18,7.0,Calm,Calm,-,N/A,,Overcast,0,2012-10-12 11:53:00
7:22 AM,62.6,60.8,94,30.21,4.0,North,8.1,-,N/A,,Mostly Cloudy,360,2012-10-12 12:22:00
7:37 AM,60.8,59.0,94,30.22,5.0,North,6.9,-,N/A,,Mostly Cloudy,350,2012-10-12 12:37:00
7:53 AM,61.0,59.0,93,30.22,5.0,North,5.8,-,N/A,,Overcast,360,2012-10-12 12:53:00
9:53 AM,63.0,60.1,90,30.26,8.0,NE,8.1,-,N/A,,Overcast,50,2012-10-12 14:53:00
11:53 AM,66.0,61.0,84,30.29,8.0,NE,4.6,-,N/A,,Overcast,40,2012-10-12 16:53:00
12:02 PM,66.2,60.8,83,30.29,8.0,NE,5.8,-,N/A,,Overcast,50,2012-10-12 17:02:00
12:53 PM,70.0,62.1,76,30.26,9.0,Variable,4.6,-,N/A,,Mostly Cloudy,0,2012-10-12 17:53:00
1:53 PM,71.1,63.0,75,30.22,10.0,SSE,4.6,-,N/A,,Clear,160,2012-10-12 18:53:00
2:53 PM,72.0,63.0,73,30.20,8.0,South,6.9,-,N/A,,Clear,190,2012-10-12 19:53:00
3:53 PM,73.0,64.0,73,30.20,10.0,Calm,Calm,-,N/A,,Clear,0,2012-10-12 20:53:00
4:45 PM,69.8,62.6,78,30.21,10.0,North,10.4,-,N/A,,Mostly Cloudy,360,2012-10-12 21:45:00
4:53 PM,69.1,62.1,78,30.21,10.0,North,11.5,-,N/A,,Mostly Cloudy,360,2012-10-12 21:53:00
5:09 PM,66.2,60.8,83,30.21,10.0,North,6.9,-,N/A,,Scattered Clouds,360,2012-10-12 22:09:00
5:53 PM,66.0,61.0,84,30.19,10.0,North,9.2,-,N/A,,Clear,10,2012-10-12 22:53:00
6:53 PM,64.0,61.0,90,30.19,10.0,North,3.5,-,N/A,,Scattered Clouds,10,2012-10-12 23:53:00
7:53 PM,63.0,60.1,90,30.19,9.0,NE,4.6,-,N/A,,Mostly Cloudy,40,2012-10-13 00:53:00
8:53 PM,63.0,61.0,93,30.20,9.0,NE,5.8,-,N/A,,Overcast,40,2012-10-13 01:53:00
9:53 PM,63.0,61.0,93,30.21,7.0,ENE,5.8,-,N/A,,Overcast,60,2012-10-13 02:53:00
10:53 PM,63.0,62.1,97,30.20,6.0,ENE,6.9,-,N/A,,Overcast,60,2012-10-13 03:53:00
11:26 PM,62.6,62.6,100,30.21,5.0,ENE,4.6,-,N/A,,Overcast,70,2012-10-13 04:26:00
11:53 PM,63.0,62.1,97,30.19,3.0,East,3.5,-,N/A,,Overcast,80,2012-10-13 04:53:00